Location: Caltech
(34.1382°N, 118.1253°W)
Time: 00:38:06
(UTC-07:00)

PCSat - Visible Passes

Search period start: 26 May 2015 00:00
Search period end: 05 June 2015 00:00
Orbit: 786 x 795 km, 67.1° (Epoch: 25 May)

Date Brightness Start Highest point End Pass type
(mag) Time Alt. Az. Time Alt. Az. Time Alt. Az.
26 May 10.9 01:14:37 35° NNE 01:14:37 35° NNE 01:17:44 10° NNE visible
26 May 11.8 02:55:19 13° WNW 02:56:26 14° NW 02:59:00 10° NNW visible
27 May 11.2 00:44:24 27° NE 00:44:24 27° NE 00:46:55 10° NE visible
27 May 11.5 02:25:06 19° NW 02:25:26 19° NW 02:29:06 10° N visible
28 May 11.6 00:14:10 20° NE 00:14:10 20° NE 00:15:58 10° NE visible
28 May 11.2 01:54:51 25° NW 01:54:51 25° NW 01:58:53 10° N visible
28 May 11.8 23:43:52 14° ENE 23:43:52 14° ENE 23:44:52 10° NE visible
29 May 11.0 01:24:34 32° NW 01:24:34 32° NW 01:28:30 10° N visible
30 May 10.8 00:54:12 38° NNW 00:54:12 38° NNW 00:58:01 10° NNE visible
31 May 10.6 00:23:47 42° N 00:23:47 42° N 00:27:25 10° NNE visible
31 May 10.6 23:53:18 40° NNE 23:53:18 40° NNE 23:56:44 10° NNE visible
01 Jun 12.0 01:33:58 12° WNW 01:35:30 13° NW 01:37:43 10° NNW visible
01 Jun 10.7 23:22:44 35° NE 23:22:44 35° NE 23:25:56 10° NNE visible
02 Jun 11.7 01:03:23 17° WNW 01:04:29 17° NW 01:07:56 10° N visible
02 Jun 10.8 22:52:03 29° ENE 22:52:03 29° ENE 22:55:01 10° NE visible
03 Jun 11.4 00:32:42 23° WNW 00:33:31 23° NW 00:37:46 10° N visible
03 Jun 11.0 22:21:14 23° ENE 22:21:14 23° ENE 22:23:56 10° NE visible
04 Jun 11.0 00:01:54 31° WNW 00:02:37 32° NW 00:07:25 10° N visible
04 Jun 11.1 21:50:15 18° E 21:50:15 18° E 21:52:39 10° ENE visible
04 Jun 10.5 23:30:53 41° W 23:31:46 44° WNW 23:36:57 10° NNE visible
